RYR18WP LIRF-LOWW

Flight info

Callsign RYR18WP
Flight time 1h 13m
Altitude 34000
Route SOSIV5AXSOVAN1E/25 SOVAN DCT AMTEL DCT GAVRA DCT LAPNA LAPNA2W
Aircraft A320/M-SDE3FGHIRWY/LB1

Departure

Time 2026-05-06 17:00
Airport Rome–Fiumicino Leonardo da Vinci International Airport (LIRF)

Arrival

Time 2026-05-06 18:14
Airport Vienna International Airport (LOWW)
Time Latitude Longitude Altitude Speed Heading
2026-05-06 16:32 41.79594 12.25754 17 ft 0 kts 116°
2026-05-06 16:48 41.79600 12.25739 15 ft 4 kts 116°
2026-05-06 16:48 41.79609 12.25712 17 ft 4 kts 113°
2026-05-06 16:48 41.79612 12.25685 15 ft 4 kts 46°
2026-05-06 16:48 41.79605 12.25676 15 ft 3 kts 26°
2026-05-06 16:49 41.79629 12.25692 17 ft 4 kts 26°
2026-05-06 16:49 41.79653 12.25707 15 ft 2 kts 26°
2026-05-06 16:49 41.79654 12.25708 15 ft 0 kts 26°
2026-05-06 16:52 41.79655 12.25709 15 ft 1 kts 26°
2026-05-06 16:52 41.79686 12.25729 16 ft 7 kts 26°
2026-05-06 16:52 41.79740 12.25764 15 ft 10 kts 26°
2026-05-06 16:53 41.79811 12.25810 16 ft 10 kts 26°
2026-05-06 16:53 41.79851 12.25821 15 ft 7 kts 355°
2026-05-06 16:53 41.79907 12.25844 15 ft 11 kts 25°
2026-05-06 16:53 41.79994 12.25898 16 ft 15 kts 24°
2026-05-06 16:54 41.80094 12.25959 15 ft 16 kts 25°
2026-05-06 16:54 41.80200 12.26025 15 ft 15 kts 25°
2026-05-06 16:54 41.80275 12.26071 17 ft 8 kts 24°
2026-05-06 16:54 41.80330 12.26105 15 ft 9 kts 25°
2026-05-06 16:55 41.80395 12.26146 15 ft 13 kts 24°
2026-05-06 16:55 41.80488 12.26193 15 ft 15 kts 26°
2026-05-06 16:55 41.80548 12.26310 17 ft 16 kts 70°
2026-05-06 16:55 41.80589 12.26460 17 ft 18 kts 70°
2026-05-06 16:56 41.80636 12.26625 16 ft 20 kts 69°
2026-05-06 16:56 41.80686 12.26805 15 ft 22 kts 69°
2026-05-06 16:56 41.80736 12.26986 17 ft 11 kts 69°
2026-05-06 16:56 41.80799 12.27042 15 ft 13 kts 353°
2026-05-06 16:57 41.80885 12.27006 15 ft 14 kts 341°
2026-05-06 16:57 41.80956 12.26944 13 ft 13 kts 286°
2026-05-06 16:57 41.80947 12.26882 13 ft 0 kts 250°
2026-05-06 16:59 41.80925 12.26801 15 ft 35 kts 250°
2026-05-06 16:59 41.80760 12.26207 19 ft 98 kts 249°
2026-05-06 16:59 41.80465 12.25143 16 ft 143 kts 249°
2026-05-06 17:00 41.80086 12.23758 67 ft 174 kts 251°
2026-05-06 17:00 41.79682 12.22282 691 ft 168 kts 246°
2026-05-06 17:00 41.79271 12.20767 1326 ft 172 kts 257°
2026-05-06 17:00 41.79315 12.19152 1845 ft 183 kts 285°
2026-05-06 17:01 41.79979 12.17620 2093 ft 205 kts 308°
2026-05-06 17:01 41.80866 12.16142 2578 ft 213 kts 308°
2026-05-06 17:01 41.81792 12.14597 3260 ft 215 kts 308°
2026-05-06 17:01 41.82727 12.13031 3997 ft 216 kts 307°
2026-05-06 17:02 41.83686 12.11464 4700 ft 219 kts 314°
2026-05-06 17:02 41.84877 12.10272 5292 ft 229 kts 332°
2026-05-06 17:02 41.86516 12.09511 5613 ft 254 kts 344°
2026-05-06 17:02 41.88301 12.08866 5995 ft 276 kts 344°
2026-05-06 17:03 41.90184 12.08176 6693 ft 284 kts 343°
2026-05-06 17:03 41.92108 12.07468 7472 ft 289 kts 343°
2026-05-06 17:03 41.94062 12.06744 8249 ft 294 kts 343°
2026-05-06 17:03 41.96062 12.06102 9000 ft 299 kts 352°
2026-05-06 17:04 41.98150 12.05867 9741 ft 303 kts 354°
2026-05-06 17:04 42.00276 12.05660 10355 ft 313 kts 354°
2026-05-06 17:04 42.02529 12.05444 10544 ft 336 kts 354°
2026-05-06 17:04 42.04920 12.05214 10916 ft 350 kts 354°
2026-05-06 17:05 42.07364 12.04975 11557 ft 355 kts 354°
2026-05-06 17:05 42.09792 12.04738 12243 ft 357 kts 354°
2026-05-06 17:05 42.12262 12.04500 12918 ft 360 kts 353°
2026-05-06 17:05 42.14749 12.04260 13542 ft 363 kts 353°
2026-05-06 17:06 42.17283 12.04013 14154 ft 367 kts 353°
2026-05-06 17:06 42.19860 12.03574 14744 ft 370 kts 347°
2026-05-06 17:06 42.22368 12.03007 15311 ft 374 kts 347°
2026-05-06 17:06 42.24947 12.02420 15868 ft 378 kts 347°
2026-05-06 17:07 42.27543 12.01832 16411 ft 381 kts 347°
2026-05-06 17:07 42.30179 12.01240 16951 ft 385 kts 347°
2026-05-06 17:07 42.32812 12.00647 17481 ft 388 kts 347°
2026-05-06 17:07 42.35476 12.00046 17990 ft 392 kts 347°
2026-05-06 17:08 42.38149 11.99441 18509 ft 396 kts 347°
2026-05-06 17:08 42.40908 11.98818 19060 ft 399 kts 347°
2026-05-06 17:08 42.43650 11.98201 19619 ft 403 kts 347°
2026-05-06 17:08 42.46420 11.97577 20175 ft 406 kts 346°
2026-05-06 17:09 42.49215 11.96948 20717 ft 409 kts 346°
2026-05-06 17:09 42.52029 11.96312 21233 ft 412 kts 346°
2026-05-06 17:09 42.54872 11.95668 21742 ft 415 kts 346°
2026-05-06 17:09 42.57711 11.95024 22221 ft 417 kts 346°
2026-05-06 17:10 42.60587 11.94372 22691 ft 420 kts 346°
2026-05-06 17:10 42.63472 11.93719 23131 ft 424 kts 346°
2026-05-06 17:10 42.66385 11.93058 23570 ft 426 kts 346°
2026-05-06 17:10 42.69313 11.92392 24009 ft 429 kts 346°
2026-05-06 17:11 42.72266 11.91718 24425 ft 432 kts 345°
2026-05-06 17:11 42.75233 11.91038 24789 ft 435 kts 345°
2026-05-06 17:11 42.78231 11.90352 25157 ft 438 kts 345°
2026-05-06 17:11 42.81234 11.89635 25525 ft 439 kts 342°
2026-05-06 17:12 42.84145 11.88451 25881 ft 436 kts 333°
2026-05-06 17:12 42.86869 11.86697 26225 ft 433 kts 326°
2026-05-06 17:12 42.89527 11.84738 26563 ft 436 kts 326°
2026-05-06 17:12 42.92197 11.82776 26914 ft 438 kts 326°
2026-05-06 17:13 42.94887 11.80808 27243 ft 440 kts 326°
2026-05-06 17:13 42.97594 11.78832 27587 ft 442 kts 326°
2026-05-06 17:13 43.00306 11.76850 27920 ft 445 kts 325°
2026-05-06 17:13 43.03037 11.74853 28247 ft 447 kts 325°
2026-05-06 17:14 43.05782 11.72844 28566 ft 449 kts 325°
2026-05-06 17:14 43.08534 11.70822 28880 ft 451 kts 325°
2026-05-06 17:14 43.11293 11.68787 29179 ft 453 kts 325°
2026-05-06 17:14 43.14065 11.66740 29484 ft 455 kts 325°
2026-05-06 17:15 43.16882 11.64772 29868 ft 458 kts 330°
2026-05-06 17:15 43.19891 11.63396 30297 ft 466 kts 340°
2026-05-06 17:15 43.23120 11.62741 30707 ft 474 kts 351°
2026-05-06 17:15 43.26441 11.62875 31077 ft 482 kts
2026-05-06 17:16 43.29741 11.63816 31436 ft 488 kts 11°
2026-05-06 17:16 43.33007 11.65088 31800 ft 488 kts 12°
2026-05-06 17:16 43.36271 11.66358 32162 ft 487 kts 11°
2026-05-06 17:16 43.39534 11.67624 32521 ft 487 kts 11°
2026-05-06 17:17 43.41731 11.68477 32758 ft 487 kts 11°
2026-05-06 17:17 43.44988 11.69738 33120 ft 487 kts 11°
2026-05-06 17:17 43.48246 11.70999 33476 ft 486 kts 11°
2026-05-06 17:17 43.51467 11.72244 33794 ft 487 kts 11°
2026-05-06 17:18 43.54573 11.73447 33909 ft 491 kts 11°
2026-05-06 17:18 43.61310 11.76074 33925 ft 495 kts 11°
2026-05-06 17:19 43.67943 11.78675 33924 ft 496 kts 11°
2026-05-06 17:19 43.74430 11.81398 33923 ft 499 kts 18°
2026-05-06 17:20 43.80485 11.86186 33909 ft 506 kts 37°
2026-05-06 17:20 43.85629 11.92530 33908 ft 507 kts 41°
2026-05-06 17:21 43.90930 11.99178 33905 ft 508 kts 41°
2026-05-06 17:21 43.96172 12.05759 33904 ft 508 kts 41°
2026-05-06 17:22 44.01410 12.12357 33908 ft 508 kts 41°
2026-05-06 17:22 44.06632 12.18980 33906 ft 508 kts 41°
2026-05-06 17:23 44.11849 12.25612 33908 ft 508 kts 41°
2026-05-06 17:23 44.17063 12.32239 33912 ft 508 kts 41°
2026-05-06 17:24 44.22221 12.38812 33916 ft 508 kts 41°
2026-05-06 17:24 44.27429 12.45452 33916 ft 508 kts 42°
2026-05-06 17:25 44.32625 12.52120 33912 ft 507 kts 41°
2026-05-06 17:25 44.37791 12.58770 33912 ft 508 kts 41°
2026-05-06 17:26 44.42987 12.65457 33912 ft 508 kts 41°
2026-05-06 17:26 44.48182 12.72153 33913 ft 508 kts 41°
2026-05-06 17:27 44.53354 12.78853 33911 ft 508 kts 41°
2026-05-06 17:27 44.58542 12.85583 33915 ft 508 kts 41°
2026-05-06 17:28 44.63723 12.92321 33916 ft 508 kts 41°
2026-05-06 17:28 44.68889 12.99081 33917 ft 507 kts 41°
2026-05-06 17:29 44.74020 13.05802 33921 ft 508 kts 41°
2026-05-06 17:29 44.79186 13.12566 33928 ft 507 kts 41°
2026-05-06 17:30 44.84335 13.19331 33932 ft 507 kts 41°
2026-05-06 17:30 44.89493 13.26127 33933 ft 507 kts 41°
2026-05-06 17:31 44.94531 13.32778 33942 ft 506 kts 41°
2026-05-06 17:31 44.99664 13.39581 33947 ft 506 kts 42°
2026-05-06 17:32 45.04757 13.46346 33946 ft 505 kts 42°
2026-05-06 17:32 45.09841 13.53117 33961 ft 505 kts 42°
2026-05-06 17:33 45.14944 13.59928 33958 ft 504 kts 42°
2026-05-06 17:33 45.20031 13.66732 33954 ft 504 kts 42°
2026-05-06 17:34 45.25119 13.73557 33952 ft 503 kts 42°
2026-05-06 17:34 45.30163 13.80350 33937 ft 501 kts 43°
2026-05-06 17:35 45.35207 13.87158 33945 ft 500 kts 43°
2026-05-06 17:35 45.40246 13.93967 33937 ft 499 kts 43°
2026-05-06 17:36 45.47793 14.04201 33937 ft 498 kts 43°
2026-05-06 17:36 45.52796 14.11013 33937 ft 496 kts 43°
2026-05-06 17:37 45.57649 14.17638 33947 ft 495 kts 43°
2026-05-06 17:37 45.62513 14.24291 33936 ft 494 kts 43°
2026-05-06 17:38 45.67543 14.31186 33934 ft 494 kts 43°
2026-05-06 17:38 45.72500 14.37995 33932 ft 494 kts 43°
2026-05-06 17:39 45.77439 14.44804 33933 ft 493 kts 43°
2026-05-06 17:39 45.82381 14.51639 33929 ft 493 kts 43°
2026-05-06 17:40 45.87228 14.58364 33925 ft 493 kts 43°
2026-05-06 17:40 45.92130 14.65188 33924 ft 493 kts 43°
2026-05-06 17:41 45.97020 14.72001 33929 ft 493 kts 43°
2026-05-06 17:41 46.01933 14.78839 33934 ft 492 kts 43°
2026-05-06 17:42 46.06813 14.85664 33928 ft 493 kts 44°
2026-05-06 17:42 46.11717 14.92559 33930 ft 492 kts 44°
2026-05-06 17:43 46.16614 14.99450 33929 ft 492 kts 44°
2026-05-06 17:43 46.21512 15.06353 33927 ft 492 kts 44°
2026-05-06 17:44 46.26314 15.13143 33920 ft 492 kts 44°
2026-05-06 17:44 46.31185 15.20063 33920 ft 492 kts 44°
2026-05-06 17:45 46.36147 15.27127 33919 ft 491 kts 44°
2026-05-06 17:45 46.38582 15.30593 33733 ft 491 kts 44°
2026-05-06 17:45 46.41168 15.33791 33483 ft 487 kts 31°
2026-05-06 17:46 46.44081 15.36109 33238 ft 485 kts 24°
2026-05-06 17:46 46.47047 15.38242 32999 ft 485 kts 24°
2026-05-06 17:46 46.50032 15.40377 32750 ft 484 kts 24°
2026-05-06 17:46 46.52976 15.42475 32505 ft 482 kts 23°
2026-05-06 17:47 46.56051 15.44663 32249 ft 480 kts 24°
2026-05-06 17:47 46.59032 15.46792 32000 ft 478 kts 24°
2026-05-06 17:47 46.62005 15.48923 31747 ft 475 kts 24°
2026-05-06 17:47 46.64965 15.51052 31496 ft 473 kts 24°
2026-05-06 17:48 46.67902 15.53169 31151 ft 470 kts 24°
2026-05-06 17:48 46.70823 15.55275 30565 ft 468 kts 24°
2026-05-06 17:48 46.73733 15.57372 29987 ft 465 kts 24°
2026-05-06 17:48 46.75692 15.58784 29603 ft 464 kts 24°
2026-05-06 17:49 46.77205 15.59882 29343 ft 462 kts 24°
2026-05-06 17:49 46.80012 15.61927 28738 ft 461 kts 24°
2026-05-06 17:49 46.82895 15.64023 28184 ft 458 kts 24°
2026-05-06 17:49 46.85738 15.66086 27618 ft 455 kts 24°
2026-05-06 17:50 46.88569 15.68140 27076 ft 453 kts 24°
2026-05-06 17:50 46.91368 15.70172 26544 ft 450 kts 24°
2026-05-06 17:50 46.94162 15.72201 26028 ft 447 kts 25°
2026-05-06 17:50 46.96930 15.74215 25520 ft 443 kts 25°
2026-05-06 17:51 46.99682 15.76218 25030 ft 440 kts 25°
2026-05-06 17:51 47.02414 15.78207 24539 ft 437 kts 25°
2026-05-06 17:51 47.05129 15.80191 24052 ft 435 kts 25°
2026-05-06 17:51 47.07833 15.82170 23569 ft 433 kts 25°
2026-05-06 17:52 47.10500 15.84130 23089 ft 431 kts 25°
2026-05-06 17:52 47.13179 15.86098 22599 ft 429 kts 25°
2026-05-06 17:52 47.15846 15.88056 22140 ft 427 kts 25°
2026-05-06 17:52 47.18476 15.89985 21907 ft 419 kts 25°
2026-05-06 17:53 47.21067 15.91889 21531 ft 415 kts 25°
2026-05-06 17:53 47.23646 15.93787 20959 ft 416 kts 25°
2026-05-06 17:53 47.26242 15.95699 20357 ft 418 kts 25°
2026-05-06 17:53 47.28846 15.97623 19748 ft 419 kts 26°
2026-05-06 17:54 47.31448 15.99550 19161 ft 420 kts 26°
2026-05-06 17:54 47.33970 16.01417 18581 ft 420 kts 25°
2026-05-06 17:54 47.36494 16.03264 18025 ft 419 kts 23°
2026-05-06 17:54 47.39283 16.04765 17808 ft 406 kts 17°
2026-05-06 17:55 47.41917 16.06066 17670 ft 393 kts 17°
2026-05-06 17:55 47.44483 16.07337 17322 ft 387 kts 17°
2026-05-06 17:55 47.46975 16.08758 16872 ft 384 kts 25°
2026-05-06 17:55 47.49348 16.10549 16396 ft 383 kts 26°
2026-05-06 17:56 47.51712 16.12343 15918 ft 380 kts 26°
2026-05-06 17:56 47.54012 16.14097 15465 ft 378 kts 26°
2026-05-06 17:56 47.56230 16.15801 15020 ft 376 kts 26°
2026-05-06 17:56 47.58531 16.17593 14562 ft 374 kts 27°
2026-05-06 17:57 47.60830 16.19384 14066 ft 372 kts 27°
2026-05-06 17:57 47.63120 16.21159 13593 ft 370 kts 26°
2026-05-06 17:57 47.65399 16.22917 13121 ft 368 kts 26°
2026-05-06 17:57 47.67667 16.24657 12638 ft 366 kts 26°
2026-05-06 17:58 47.69863 16.26333 12178 ft 365 kts 26°
2026-05-06 17:58 47.72180 16.28098 11828 ft 360 kts 26°
2026-05-06 17:58 47.74372 16.29769 11694 ft 349 kts 26°
2026-05-06 17:58 47.76497 16.31393 11567 ft 338 kts 26°
2026-05-06 17:59 47.78562 16.32976 11308 ft 332 kts 26°
2026-05-06 17:59 47.80613 16.34551 10843 ft 334 kts 26°
2026-05-06 17:59 47.82666 16.36125 10390 ft 337 kts 26°
2026-05-06 17:59 47.84472 16.37509 10004 ft 338 kts 27°
2026-05-06 18:00 47.86560 16.39111 9551 ft 340 kts 27°
2026-05-06 18:00 47.88660 16.40729 9093 ft 342 kts 27°
2026-05-06 18:00 47.89845 16.41643 8849 ft 342 kts 27°
2026-05-06 18:00 47.91867 16.43201 8422 ft 344 kts 27°
2026-05-06 18:01 47.93721 16.44629 8093 ft 342 kts 27°
2026-05-06 18:01 47.95859 16.46238 7997 ft 330 kts 22°
2026-05-06 18:01 47.98012 16.47110 8002 ft 312 kts
2026-05-06 18:01 48.00104 16.47082 7979 ft 294 kts 346°
2026-05-06 18:02 48.01930 16.46357 7860 ft 279 kts 331°
2026-05-06 18:02 48.03576 16.45009 7685 ft 265 kts 316°
2026-05-06 18:02 48.04677 16.43578 7467 ft 257 kts 305°
2026-05-06 18:02 48.05704 16.41587 7193 ft 248 kts 292°
2026-05-06 18:03 48.06584 16.39377 7023 ft 248 kts 293°
2026-05-06 18:03 48.07467 16.37158 7031 ft 249 kts 293°
2026-05-06 18:03 48.08317 16.35030 6817 ft 246 kts 292°
2026-05-06 18:03 48.09181 16.32865 6629 ft 239 kts 292°
2026-05-06 18:04 48.10018 16.30765 6497 ft 230 kts 291°
2026-05-06 18:04 48.10822 16.28744 6313 ft 223 kts 291°
2026-05-06 18:04 48.11610 16.26756 6033 ft 222 kts 291°
2026-05-06 18:04 48.12376 16.24760 5732 ft 219 kts 288°
2026-05-06 18:05 48.13061 16.22728 5388 ft 219 kts 286°
2026-05-06 18:05 48.13709 16.20701 5072 ft 215 kts 285°
2026-05-06 18:05 48.14339 16.18709 5029 ft 217 kts 285°
2026-05-06 18:05 48.14990 16.16656 5033 ft 219 kts 286°
2026-05-06 18:06 48.15645 16.14613 5031 ft 211 kts 286°
2026-05-06 18:06 48.16431 16.12825 5016 ft 212 kts 310°
2026-05-06 18:06 48.17807 16.11893 5028 ft 227 kts 348°
2026-05-06 18:06 48.19371 16.12246 5031 ft 233 kts 26°
2026-05-06 18:07 48.20578 16.13760 4795 ft 224 kts 64°
2026-05-06 18:07 48.21134 16.15767 4550 ft 214 kts 82°
2026-05-06 18:07 48.21519 16.17888 4368 ft 206 kts 84°
2026-05-06 18:07 48.21862 16.19931 4232 ft 200 kts 85°
2026-05-06 18:08 48.22073 16.21845 4136 ft 185 kts 102°
2026-05-06 18:08 48.21857 16.23644 4051 ft 169 kts 123°
2026-05-06 18:08 48.21366 16.25208 4039 ft 166 kts 127°
2026-05-06 18:08 48.20869 16.26762 4034 ft 165 kts 127°
2026-05-06 18:09 48.20368 16.28314 4037 ft 165 kts 128°
2026-05-06 18:09 48.19871 16.29861 3977 ft 165 kts 128°
2026-05-06 18:09 48.19376 16.31401 3816 ft 164 kts 127°
2026-05-06 18:09 48.18883 16.32933 3611 ft 162 kts 127°
2026-05-06 18:10 48.18394 16.34446 3396 ft 161 kts 127°
2026-05-06 18:10 48.17936 16.35867 3192 ft 160 kts 127°
2026-05-06 18:10 48.17456 16.37354 2978 ft 159 kts 127°
2026-05-06 18:10 48.16977 16.38836 2762 ft 157 kts 124°
2026-05-06 18:11 48.16501 16.40308 2536 ft 158 kts 123°
2026-05-06 18:11 48.16023 16.41783 2333 ft 157 kts 122°
2026-05-06 18:11 48.15560 16.43216 2131 ft 158 kts 121°
2026-05-06 18:11 48.15086 16.44683 1901 ft 155 kts 121°
2026-05-06 18:12 48.14633 16.46083 1694 ft 144 kts 119°
2026-05-06 18:12 48.14204 16.47408 1504 ft 139 kts 119°
2026-05-06 18:12 48.13787 16.48692 1332 ft 136 kts 119°
2026-05-06 18:12 48.13398 16.49922 1144 ft 136 kts 117°
2026-05-06 18:13 48.12991 16.51189 981 ft 135 kts 120°
2026-05-06 18:13 48.12598 16.52390 766 ft 135 kts 119°
2026-05-06 18:13 48.12171 16.53660 628 ft 135 kts 118°
2026-05-06 18:13 48.11805 16.54781 617 ft 100 kts 115°
2026-05-06 18:14 48.11600 16.55426 614 ft 25 kts 115°
2026-05-06 18:14 48.11534 16.55644 612 ft 23 kts 112°
2026-05-06 18:14 48.11503 16.55882 619 ft 24 kts 93°
2026-05-06 18:14 48.11511 16.56079 619 ft 11 kts 78°
2026-05-06 18:15 48.11554 16.56147 609 ft 9 kts 23°
2026-05-06 18:15 48.11596 16.56087 616 ft 10 kts 296°
2026-05-06 18:15 48.11630 16.55983 614 ft 12 kts 296°
2026-05-06 18:15 48.11668 16.55866 614 ft 14 kts 296°
2026-05-06 18:16 48.11711 16.55730 611 ft 16 kts 296°
2026-05-06 18:16 48.11763 16.55571 620 ft 18 kts 295°
2026-05-06 18:16 48.11812 16.55429 613 ft 11 kts 307°
2026-05-06 18:16 48.11877 16.55430 620 ft 10 kts 11°
2026-05-06 18:17 48.11950 16.55460 619 ft 11 kts 23°
2026-05-06 18:17 48.12020 16.55510 616 ft 12 kts 26°
2026-05-06 18:17 48.12091 16.55564 609 ft 7 kts 27°
2026-05-06 18:17 48.12101 16.55617 621 ft 8 kts 109°
2026-05-06 18:18 48.12089 16.55655 609 ft 3 kts 116°
2026-05-06 18:18 48.12086 16.55665 614 ft 0 kts 116°